Phoenix-Mesa Gateway Airport, AZ

6:43 PM MST on July 27, 2017 (GMT -0700)
Phoenix-Mesa Gateway Airport

Weather History for KIWA - December, 2012

Change the Weather History Date:

Friday, December 28, 2012

  Actual Average Record
Temperature  
Mean Temperature 44 °F -  
Max Temperature 55 °F 62 °F 75 °F (2004)
Min Temperature 33 °F 38 °F 28 °F (2014)
Degree Days  
Heating Degree Days 21    
Moisture  
Dew Point 32 °F    
Average Humidity 71    
Maximum Humidity 93    
Minimum Humidity 36    
Precipitation  
Precipitation 0.00 in - - ()
Sea Level Pressure  
Sea Level Pressure 30.12 in    
Wind  
Wind Speed 5 mph (East)    
Max Wind Speed 7 mph    
Max Gust Speed -    
Visibility 12 miles    
Events      
Averages and records for this station are not official NWS values.
T = Trace of Precipitation, MM = Missing Value Source: NWS Daily Summary

Daily Weather History Graph

Daily Weather History Graph

Search for Another Location

Airport or City:

Trip Planner

Search our weather history database for the weather conditions in past years. The results will help you decide how hot, cold, wet, or windy it might be!

Date:

Astronomy

Dec. 28, 2012 Rise Set
Actual Time 7:29 AM MST 5:27 PM MST
Civil Twilight 7:02 AM MST 5:55 PM MST
Nautical Twilight 6:31 AM MST 6:26 PM MST
Astronomical Twilight 6:00 AM MST 6:56 PM MST
Moon 6:04 PM MST 7:28 AM MST
Length of Visible Light 10h 53m
Length of Day
9h 58m
Full, 100% of the Moon is Illuminated
Dec 28
Full
Jan 4
Last Quarter
Jan 11
New
Jan 18
First Quarter
Jan 26
Full

Hourly Weather History & Observations

Time (MST) Temp. Windchill Dew Point Humidity Pressure Visibility Wind Dir Wind Speed Gust Speed Precip Events Conditions
12:15 AM 39.2 °F 35.0 °F 33.8 °F 81% 30.06 in 10.0 mi ESE 5.8 mph - N/A   Clear
12:35 AM 37.4 °F 32.1 °F 32.0 °F 81% 30.06 in 10.0 mi East 6.9 mph - N/A   Clear
12:55 AM 37.4 °F 32.8 °F 32.0 °F 81% 30.06 in 10.0 mi East 5.8 mph - N/A   Clear
1:15 AM 37.4 °F 32.8 °F 32.0 °F 81% 30.07 in 10.0 mi ESE 5.8 mph - N/A   Clear
1:35 AM 37.4 °F 32.8 °F 32.0 °F 81% 30.07 in 10.0 mi ESE 5.8 mph - N/A   Clear
1:55 AM 37.4 °F 32.8 °F 32.0 °F 81% 30.08 in 10.0 mi ESE 5.8 mph - N/A   Clear
2:15 AM 37.4 °F 32.8 °F 32.0 °F 81% 30.08 in 10.0 mi ESE 5.8 mph - N/A   Clear
2:35 AM 35.6 °F 31.7 °F 32.0 °F 87% 30.09 in 10.0 mi ESE 4.6 mph - N/A   Clear
2:55 AM 35.6 °F 30.7 °F 32.0 °F 87% 30.09 in 10.0 mi ESE 5.8 mph - N/A   Clear
3:15 AM 33.8 °F 29.6 °F 32.0 °F 93% 30.09 in 10.0 mi East 4.6 mph - N/A   Clear
3:35 AM 33.8 °F 30.8 °F 32.0 °F 93% 30.10 in 10.0 mi ESE 3.5 mph - N/A   Clear
3:55 AM 33.8 °F - 32.0 °F 93% 30.10 in 10.0 mi Calm Calm - N/A   Clear
4:15 AM 33.8 °F 29.6 °F 32.0 °F 93% 30.10 in 10.0 mi East 4.6 mph - N/A   Clear
4:35 AM 33.8 °F 29.6 °F 32.0 °F 93% 30.09 in 10.0 mi East 4.6 mph - N/A   Clear
4:55 AM 33.8 °F 30.8 °F 32.0 °F 93% 30.11 in 10.0 mi NE 3.5 mph - N/A   Clear
5:15 AM 33.8 °F 30.8 °F 30.2 °F 87% 30.11 in 10.0 mi NE 3.5 mph - N/A   Clear
5:47 AM 33.8 °F 28.6 °F 30.2 °F 87% 30.11 in 20.0 mi East 5.8 mph - N/A   Clear
6:47 AM 33.8 °F 28.6 °F 30.2 °F 87% 30.13 in 20.0 mi ENE 5.8 mph - N/A   Clear
7:47 AM 33.8 °F 27.7 °F 30.2 °F 87% 30.15 in 45.0 mi SSE 6.9 mph - N/A   Clear
8:47 AM 37.4 °F 32.8 °F 33.8 °F 87% 30.16 in 45.0 mi ESE 5.8 mph - N/A   Clear
9:50 AM 44.6 °F 43.1 °F 35.6 °F 71% 30.18 in 35.0 mi SSW 3.5 mph - N/A   Partly Cloudy
10:47 AM 46.4 °F - 33.8 °F 62% 30.20 in 35.0 mi Calm Calm - N/A   Partly Cloudy
11:47 AM 51.8 °F - 33.8 °F 50% 30.17 in 35.0 mi Calm Calm - N/A   Partly Cloudy
12:47 PM 53.6 °F - 33.8 °F 47% 30.15 in 35.0 mi Variable 4.6 mph - N/A   Partly Cloudy
1:47 PM 53.6 °F - 30.2 °F 41% 30.11 in 35.0 mi Variable 3.5 mph - N/A   Partly Cloudy
2:51 PM 55.4 °F - 30.2 °F 38% 30.11 in 35.0 mi West 3.5 mph - N/A   Clear
3:47 PM 55.4 °F - 30.2 °F 38% 30.12 in 35.0 mi Variable 4.6 mph - N/A   Clear
4:47 PM 55.4 °F - 28.4 °F 36% 30.12 in 35.0 mi Calm Calm - N/A   Clear
5:47 PM 53.6 °F - 28.4 °F 38% 30.14 in 20.0 mi Calm Calm - N/A   Clear
6:47 PM 51.8 °F - 32.0 °F 47% 30.15 in 20.0 mi Calm Calm - N/A   Clear
7:47 PM 46.4 °F - 30.2 °F 53% 30.15 in 20.0 mi Calm Calm - N/A   Clear
7:55 PM 46.4 °F - 32.0 °F 57% 30.15 in 10.0 mi Calm Calm - N/A   Clear
8:15 PM 44.6 °F 42.2 °F 32.0 °F 61% 30.15 in 10.0 mi North 4.6 mph - N/A   Clear
8:35 PM 42.8 °F 39.3 °F 32.0 °F 66% 30.15 in 10.0 mi ENE 5.8 mph - N/A   Clear
8:47 PM 44.6 °F 43.1 °F 30.2 °F 57% 30.15 in 20.0 mi Variable 3.5 mph - N/A   Clear
8:55 PM 42.8 °F 39.3 °F 32.0 °F 66% 30.14 in 10.0 mi ENE 5.8 mph - N/A   Clear
9:15 PM 42.8 °F 40.1 °F 32.0 °F 66% 30.14 in 10.0 mi East 4.6 mph - N/A   Clear
9:35 PM 41.0 °F 38.0 °F 32.0 °F 70% 30.14 in 10.0 mi ENE 4.6 mph - N/A   Clear
9:55 PM 41.0 °F 39.0 °F 32.0 °F 70% 30.14 in 10.0 mi ENE 3.5 mph - N/A   Clear
10:15 PM 41.0 °F 38.0 °F 32.0 °F 70% 30.15 in 10.0 mi ENE 4.6 mph - N/A   Clear
10:35 PM 41.0 °F 36.4 °F 32.0 °F 70% 30.15 in 10.0 mi ENE 6.9 mph - N/A   Clear
10:55 PM 41.0 °F 36.4 °F 30.2 °F 65% 30.15 in 10.0 mi East 6.9 mph - N/A   Clear
11:15 PM 41.0 °F 37.1 °F 32.0 °F 70% 30.14 in 10.0 mi East 5.8 mph - N/A   Clear
11:35 PM 41.0 °F 37.1 °F 32.0 °F 70% 30.15 in 10.0 mi East 5.8 mph - N/A   Clear
11:55 PM 39.2 °F 35.9 °F 32.0 °F 75% 30.14 in 10.0 mi East 4.6 mph - N/A   Clear